Meath Environmental Platform

Observations

Time Sensor AQI SAQ Temp °C Hum % Pres Pa CO μg/m³ H₂S μg/m³ NO μg/m³ NO₂ μg/m³ O₃ μg/m³ SO₂ μg/m³ CO₂e PPM VOC PPM PM1 μg/m³ PM2.5 μg/m³ PM4 μg/m³ PM10 μg/m³ TPS µm
Wednesday 12 August 2026
10:57 Trim Patrick St 2 30.7 43 69,349 0 0 0.74 4.87 71.62 10.26 4.57 9.98 10.98
10:56 Trim Patrick St 2 30.8 44 69,357 0 0 0.72 4.66 71.02 9.8 4.57 10.71 11.78
10:55 Trim Patrick St 2 30.9 43 69,367 0 0 0.73 1.95 46.19 9.37 3.71 9.17 10.09
10:55 Trim Market St 2 35.6 34 66,501 0 0 0.2 12.21 36.45 0 2.85 5.85 6.44
10:54 Trim Patrick St 2 30.9 44 69,355 0 0 0.73 2.82 56.57 9.07 5.43 9.89 10.88
10:53 Trim Patrick St 2 31 44 69,334 0 0 0.73 6.34 67.4 10.78 4.57 9.86 10.85
10:52 Trim Patrick St 2 31 43 69,328 0 0 0.71 2.46 56.94 9.67 6.29 11.5 12.65
10:51 Trim Patrick St 2 31.1 44 69,351 0 0 0.72 5.55 59.05 9.6 4.57 10.64 11.71
10:50 Trim Patrick St 2 31.1 44 69,351 0 0 0.72 4.88 68.51 10.21 5.43 10.65 11.71
10:50 Trim Market St 2 36 34 66,529 0 0 0.14 5.47 56.81 0 2.14 5.85 6.43
10:49 Trim Patrick St 2 31.1 43 69,353 0 0 0.71 3.81 60.02 9.9 4.57 10.77 11.84
10:49 Trim Market St 2 36 34 66,515 0 0 0.13 6.76 56.01 0 2.14 4.74 5.01
10:48 Trim Patrick St 2 31.2 43 69,357 0 0 0.7 5.02 66.61 9.53 4.57 10.72 11.8
10:48 Trim Market St 2 36 35 66,525 0 0 0.12 3.41 43.54 0 2.14 5.24 5.86
10:47 Trim Patrick St 2 31.2 43 69,359 0 0 0.7 1.89 56.16 9.58 4.57 10.73 11.8
10:47 Trim Market St 2 36 35 66,507 0 0 0.12 7.42 48.39 0 2.14 4.68 5.15
10:46 Trim Patrick St 2 31.2 43 69,361 0 0 0.7 3.47 38.98 8.64 5.43 11.49 12.64
10:46 Trim Market St 2 35.9 35 66,478 0 0 0.14 7.73 63.81 0 2.85 5.23 5.75
10:45 Trim Patrick St 2 31.1 45 69,365 0 0 0.73 8.43 69.13 10.44 6.29 12.17 13.39
10:44 Trim Patrick St 2 31.1 45 69,367 0 0 0.74 4.2 54.24 8.93 6.29 11.35 12.48